Location: ???????
(55.4362°N, 38.1183°E)
Time: 16:34:26
(UTC+00:00)

Cosmos 2219 Rocket - Pass Details

Date: 26 October 2021
Orbit: 826 x 848 km, 71.0° (Epoch: 04 December)

Event Time Altitude Azimuth Distance (km) Brightness Sun altitude
Exits shadow 01:05:13 26° 338° (NNW) 1,623 3.6 -27.9°
Maximum altitude 01:08:26 60° 50° (NE) 964 2.6 -27.5°
Drops below altitude 10° 01:14:02 10° 130° (SE) 2,466 5.0 -26.7°
Sets 01:16:31 0° 134° (SE) 3,400 5.7 -26.4°
